Location: GMARS
(34.2910°N, 116.3838°W)
Time: 14:08:32
(UTC-08:00)

Daily predictions for brighter satellites

Satellite Brightness Start Highest point End
(mag) Time Altitude Azimuth Time Altitude Azimuth Time Altitude Azimuth
MOS 1 4.3 17:17:37 10° SSE 17:23:15 81° ENE 17:28:55 10° NNW
NOSS 0 Rocket 4.2 17:17:40 10° S 17:23:37 49° ESE 17:29:34 10° NE
OAO 3 Rocket 3.5 17:24:41 10° W 17:29:35 69° SSW 17:34:23 10° ESE
Cosmos 2084 3.2 17:25:44 10° SSW 17:29:42 76° ESE 17:33:30 10° NE
SMAP 3.3 17:25:12 10° S 17:29:51 79° WSW 17:34:31 10° NNW
Abrixas rocket 2.3 17:28:04 10° NW 17:31:23 83° SW 17:34:42 10° SE
Cosmos 1937 Rocket 3.8 17:26:47 10° NNW 17:31:58 73° WSW 17:37:09 10° S
Cosmos 1328 4.0 17:30:44 10° SSE 17:34:31 47° E 17:38:19 10° NNE
Aureole 2 Rocket 4.0 17:32:33 10° SSE 17:35:11 20° E 17:37:58 10° NE
CENTAUR R/B 3.5 17:29:58 10° SW 17:35:40 45° NW 17:42:04 10° NNE
Cosmos 44 Rocket 3.4 17:31:10 10° SSW 17:36:19 90° ESE 17:41:25 10° NNE
Meteor 1-28 Rocket 3.9 17:33:09 10° NNE 17:36:31 33° E 17:39:53 10° SSE
YAOGAN 1 2.9 17:34:37 10° S 17:38:55 71° W 17:43:14 10° NNW
CZ-2C R/B 3.5 17:36:25 10° S 17:41:20 52° W 17:46:08 10° NNW
COSMO-SKYMED 1 2.6 17:37:04 10° NNE 17:41:23 65° E 17:45:40 10° S
Cosmos 1844 Rocket 2.6 17:36:48 10° NNW 17:42:28 73° ENE 17:48:04 10° SSE
Meteor 2-2 Rocket 4.2 17:37:07 10° N 17:42:45 75° E 17:48:22 10° SSE
Cosmos 2228 Rocket 3.3 17:43:07 10° N 17:47:32 75° W 17:51:57 10° S
SJ-6B 4.1 17:44:41 10° ESE 17:47:40 20° ENE 17:50:41 10° NNE
Cosmos 1980 3.7 17:48:15 10° SSW 17:53:54 80° ESE 17:59:35 10° NNE
Cosmos 2058 3.1 17:51:04 10° SSE 17:54:59 46° E 17:58:55 10° NNE
H-2A ROCKET BODY 4.2 17:15:59 10° WSW 17:56:17 60° S 18:02:29 13° E
Elektron 3 4.0 17:52:40 10° NW 17:57:01 87° WSW 17:59:55 10° SSE
Cosmos 2279 Rocket 4.2 17:52:59 10° N 17:58:55 46° E 18:04:51 10° SSE
Cosmos 1703 4.1 17:58:49 10° SSE 18:02:12 29° E 18:04:47 15° NE
Cosmos 304 Rocket 4.3 17:58:34 10° SSE 18:02:58 37° E 18:06:43 14° NE
Cosmos 2333 Rocket 2.6 18:00:58 10° SSW 18:06:33 66° WNW 18:12:11 10° NNE
Atlas Centaur 2 3.6 18:07:33 10° W 18:11:41 25° SSW 18:15:10 10° SSE
Nadezhda 4 Rocket 4.4 18:09:51 10° SSE 18:15:31 39° E 18:21:16 10° NNE
Cosmos 1340 Rocket 2.6 18:13:11 10° S 18:17:06 69° E 18:21:01 10° NNE
Cosmos 372 Rocket 4.0 18:12:08 10° N 18:17:06 52° ENE 18:22:03 10° SSE
METEOR-M 4.1 18:12:06 10° SSE 18:17:19 58° ENE 18:22:34 10° N
Abrixas 2.7 18:15:00 10° WSW 18:17:52 60° NW 18:18:50 36° NNE
Meteor 2-10 3.9 18:12:55 10° N 18:17:57 62° E 18:23:08 10° SSE
Cosmos 1356 Rocket 3.9 18:15:28 10° SSE 18:19:05 34° E 18:19:50 31° ENE
Cosmos 2219 Rocket 3.5 18:14:32 10° SW 18:19:45 38° WNW 18:24:59 10° N
Cosmos 2151 3.7 18:17:09 10° SSW 18:21:16 54° W 18:25:23 10° N
SL-14 R/B 4.4 18:21:57 10° SSW 18:25:41 45° W 18:29:29 10° N
Cosmos 540 Rocket 4.1 18:20:44 10° SSW 18:25:47 55° WNW 18:30:52 10° N
Meteor 1-27 4.2 18:20:27 10° N 18:26:17 79° E 18:32:06 10° SSE
Cosmos 1626 2.3 18:23:14 10° SSE 18:26:48 45° E 18:27:22 41° ENE
Cosmos 2278 Rocket 2.1 18:23:29 10° NNW 18:29:10 78° ENE 18:34:50 10° SSE
Cosmos 1805 Rocket 3.4 18:25:33 10° S 18:29:58 74° E 18:34:22 10° N
Cosmos 1092 Rocket 4.4 18:27:09 10° SSE 18:32:53 38° E 18:36:36 20° NE
OAO 1 Rocket 4.4 18:29:11 10° W 18:34:30 82° N 18:36:34 38° E
Cosmos 1151 Rocket 4.3 18:31:50 10° NNW 18:35:52 42° W 18:39:54 10° SSW
USA 215 3.2 18:32:58 13° SE 18:38:50 71° NE 18:45:21 10° NW
Aureole 1 Rocket 4.0 18:38:13 10° SSE 18:42:14 38° ESE 18:42:14 38° ESE
NOAA 12 4.3 18:39:01 10° S 18:44:12 70° WSW 18:49:27 10° NNW
ALOS 2.2 18:41:25 10° SSE 18:45:57 55° ENE 18:50:31 10° N
Cosmos 1125 Rocket 4.3 18:42:28 10° NNW 18:47:29 51° WSW 18:52:29 10° S
Cosmos 1726 4.4 18:44:42 10° NNW 18:47:54 27° W 18:51:06 10° SSW
Cosmos 2237 Rocket 3.6 18:45:30 10° SW 18:50:36 35° WNW 18:55:44 10° N
Timation 1 Rocket 4.3 18:44:52 10° NNW 18:50:49 60° ENE 18:53:52 29° SE
Milstar 3 3.8 18:46:13 10° W 18:52:22 40° SSW 18:57:25 19° SE
Hubble Space Telescope 3.3 18:50:03 10° WSW 18:52:32 15° SSW 18:54:36 11° SSE
FREGAT/IRIS 3.6 18:49:38 10° S 18:52:35 47° W 18:52:44 46° W
Spot 2 Rocket 3.4 18:48:05 10° SSE 18:53:03 61° ENE 18:58:01 10° N
OTV 4 2.2 18:50:15 10° WNW 18:51:57 31° WNW 18:51:57 31° WNW
Sich 1 2.9 18:49:21 10° S 18:53:47 88° E 18:55:02 47° N
SL-16 R/B 2.2 18:49:27 10° SSW 18:55:06 80° WNW 18:58:16 27° NNE
Cosmos 1633 Rocket 2.9 18:52:36 10° S 18:57:01 84° E 18:57:16 78° NE
Lacrosse 5 rocket 3.0 18:53:41 10° NNW 18:55:10 21° NNW 18:55:10 21° NNW
Cosmos 1538 Rocket 4.0 18:55:47 10° SSW 19:01:02 82° WNW 19:03:08 38° N
Resurs 01 Rocket 3.4 19:09:28 22° NNW 19:09:28 22° NNW 19:11:03 10° NNW
Cosmos 2297 3.5 19:02:37 10° NNW 19:08:20 77° ENE 19:09:09 64° SE
Intelsat 5-1 Rocket 4.0 19:11:42 10° SW 19:14:33 23° S 19:14:33 23° S
USA 229 DEB 3.5 19:11:52 10° SSW 19:18:40 75° ESE 19:19:18 69° ENE
USA 229 3.5 19:11:59 10° SSW 19:18:46 74° ESE 19:19:20 70° E
Cosmos 1461 4.4 19:20:03 10° SW 19:23:33 34° WNW 19:23:33 34° WNW
Iridium 4 Rocket 4.2 19:21:30 10° SSW 19:24:50 41° SW 19:24:50 41° SW
